Regional Weather Roundup
Issued by NWS

Home | Current Version | Previous Version | Graphics & Text | Print | Product List | Glossary On
Versions: 1 2 3 4 5 6 7 8 9 10 11 12 13 14 15 16 17 18 19 20 21 22 23 24 25 26 27 28 29 30 31 32 33 34 35 36 37 38 39 40 41 42 43 44 45 46 47 48 49 50
000
ASUS43 KLMK 251710
RWRKY
KENTUCKY REGIONAL WEATHER ROUNDUP
NATIONAL WEATHER SERVICE LOUISVILLE KY
100 PM EDT SAT APR 25 2015

NOTE "FAIR" INDICATES FEW OR NO CLOUDS BELOW 12,000 FEET
WITH NO SIGNIFICANT WEATHER AND/OR OBSTRUCTIONS TO VISIBILITY.

KYZ001>023-026-027-061>063-070>075-251800-
WESTERN AND SOUTH CENTRAL KENTUCKY

CITY           SKY/WX    TMP DP  RH WIND       PRES   REMARKS
PADUCAH        CLOUDY    71  59  65 SW17G24   29.55F
HENDERSON      CLOUDY    68  59  73 SW20      29.53F
OWENSBORO      PTSUNNY   69  62  78 SW18      29.55F
HOPKINSVILLE   PTSUNNY   73  62  68 SW17      29.58F
BOWLING GREEN  PTSUNNY   69  59  70 S10       29.62F
GLASGOW        PTSUNNY   68  59  72 S10       29.62F
$$

KYZ024-025-028>034-038-045-046-053-251800-
NORTH CENTRAL KENTUCKY

CITY           SKY/WX    TMP DP  RH WIND       PRES   REMARKS
LOUISVILLE/SDF LGT RAIN  54  52  93 E6        29.61F
LOUISVILLE/LOU CLOUDY    53  51  93 CALM      29.63F
FORT KNOX      CLOUDY    57  55  94 E6        29.57F
$$

KYZ035>037-039>044-047>052-055>060-089>105-251800-
NORTHEAST KENTUCKY

CITY           SKY/WX    TMP DP  RH WIND       PRES   REMARKS
LEXINGTON      CLOUDY    52  50  93 SE8       29.66F
COVINGTON      HVY RAIN  48  46  93 E13       29.68F FOG
FRANKFORT      CLOUDY    51  50  96 SE7       29.64F
$$

KYZ054-064>069-076>088-106>120-251800-
SOUTHEAST KENTUCKY

CITY           SKY/WX    TMP DP  RH WIND       PRES   REMARKS
JACKSON        CLOUDY    50  49  96 VRB3      29.69F FOG
LONDON         CLOUDY    65  53  65 S13       29.68F
SOMERSET       PTSUNNY   63  55  77 S8        29.68F
MIDDLESBORO    CLOUDY    58  53  85 S8        29.73F
MONTICELLO     CLOUDY    68  59  73 S7        29.69F
$$



USA.gov is the U.S. government's official web portal to all federal, state and local government web resources and services.